TimeEDT,TemperatureF,Dew PointF,Humidity,Sea Level PressureIn,VisibilityMPH,Wind Direction,Wind SpeedMPH,Gust SpeedMPH,PrecipitationIn,Events,Conditions,WindDirDegrees,DateUTC
12:53 AM,30.0,28.0,92,29.96,3.0,Variable,6.9,-,0.00,Snow,Light Snow,0,2013-03-26 04:53:00
1:53 AM,30.0,28.0,92,29.97,4.0,WSW,6.9,-,0.00,Snow,Light Snow,250,2013-03-26 05:53:00
2:35 AM,30.2,28.4,93,29.94,3.0,West,9.2,-,0.01,Snow,Light Snow,260,2013-03-26 06:35:00
2:53 AM,30.0,28.0,92,29.98,2.0,West,8.1,-,0.01,Snow,Light Snow,270,2013-03-26 06:53:00
3:01 AM,30.2,28.4,93,29.94,1.5,WSW,8.1,-,0.01,Snow,Light Snow,250,2013-03-26 07:01:00
3:15 AM,30.2,28.4,93,29.95,2.0,WSW,6.9,-,0.01,Snow,Light Snow,250,2013-03-26 07:15:00
3:53 AM,30.0,28.0,92,29.98,1.8,Variable,5.8,-,0.01,Snow,Light Snow,0,2013-03-26 07:53:00
4:01 AM,30.2,28.4,93,29.95,2.0,Variable,5.8,-,0.01,Snow,Light Snow,0,2013-03-26 08:01:00
4:46 AM,30.2,28.4,93,29.95,3.0,West,8.1,-,0.02,Snow,Light Snow,270,2013-03-26 08:46:00
4:53 AM,30.0,28.0,92,29.99,3.0,West,6.9,-,0.02,Snow,Light Snow,270,2013-03-26 08:53:00
5:07 AM,30.2,28.4,93,29.95,2.5,Variable,4.6,-,0.00,Snow,Light Snow,0,2013-03-26 09:07:00
5:28 AM,30.2,28.4,93,29.96,3.0,Variable,5.8,-,0.00,Snow,Light Snow,0,2013-03-26 09:28:00
5:53 AM,30.0,28.0,92,30.00,3.0,WNW,6.9,-,0.00,Snow,Light Snow,290,2013-03-26 09:53:00
6:05 AM,30.2,28.4,93,29.96,2.5,West,8.1,-,0.00,Snow,Light Snow,280,2013-03-26 10:05:00
6:53 AM,30.0,28.0,92,30.01,2.5,West,5.8,-,0.01,Snow,Light Snow,280,2013-03-26 10:53:00
7:10 AM,30.2,28.4,93,29.98,3.0,Variable,4.6,-,N/A,Snow,Light Snow,0,2013-03-26 11:10:00
7:53 AM,30.0,28.0,92,30.03,1.5,WNW,5.8,-,0.00,Snow,Light Snow,290,2013-03-26 11:53:00
8:11 AM,30.2,28.4,93,30.00,2.0,West,4.6,-,0.00,Snow,Light Snow,280,2013-03-26 12:11:00
8:17 AM,30.2,28.4,93,30.01,3.0,WNW,5.8,-,0.00,Snow,Light Snow,290,2013-03-26 12:17:00
8:48 AM,30.2,28.4,93,30.01,7.0,West,6.9,-,0.00,,Overcast,280,2013-03-26 12:48:00
8:53 AM,30.9,28.0,89,30.05,6.0,West,5.8,-,0.00,Snow,Light Snow,280,2013-03-26 12:53:00
9:53 AM,30.9,28.0,89,30.08,10.0,WNW,5.8,-,0.00,,Overcast,290,2013-03-26 13:53:00
10:36 AM,30.2,28.4,93,30.06,10.0,WNW,4.6,-,N/A,,Overcast,290,2013-03-26 14:36:00
10:53 AM,32.0,28.0,85,30.10,10.0,Variable,5.8,-,N/A,,Overcast,0,2013-03-26 14:53:00
11:30 AM,32.0,28.4,87,30.08,10.0,Variable,4.6,-,N/A,,Overcast,0,2013-03-26 15:30:00
11:41 AM,32.0,28.4,87,30.09,10.0,West,6.9,-,N/A,,Overcast,280,2013-03-26 15:41:00
11:53 AM,32.0,28.0,85,30.12,10.0,Variable,4.6,-,N/A,,Overcast,0,2013-03-26 15:53:00
12:53 PM,33.1,28.0,82,30.13,10.0,West,5.8,-,N/A,,Overcast,270,2013-03-26 16:53:00
1:53 PM,33.1,28.9,85,30.14,10.0,Variable,4.6,-,0.00,,Overcast,0,2013-03-26 17:53:00
2:53 PM,34.0,30.0,85,30.14,10.0,Variable,6.9,-,0.00,,Overcast,0,2013-03-26 18:53:00
3:11 PM,37.4,30.2,75,30.11,9.0,Variable,6.9,-,0.00,,Mostly Cloudy,0,2013-03-26 19:11:00
3:22 PM,37.4,30.2,75,30.11,10.0,Variable,4.6,-,0.00,,Overcast,0,2013-03-26 19:22:00
3:29 PM,35.6,28.4,75,30.11,10.0,Variable,5.8,-,0.00,,Mostly Cloudy,0,2013-03-26 19:29:00
3:53 PM,36.0,28.9,76,30.14,9.0,West,6.9,-,0.00,,Overcast,260,2013-03-26 19:53:00
4:00 PM,35.6,28.4,75,30.11,10.0,West,8.1,-,N/A,,Overcast,270,2013-03-26 20:00:00
4:32 PM,35.6,28.4,75,30.11,3.0,WNW,8.1,-,0.00,Snow,Light Snow,300,2013-03-26 20:32:00
4:35 PM,33.8,28.4,81,30.11,2.5,WNW,9.2,-,0.00,Snow,Light Snow,300,2013-03-26 20:35:00
4:39 PM,33.8,28.4,81,30.12,1.8,WNW,9.2,-,0.00,Snow,Light Snow,300,2013-03-26 20:39:00
4:43 PM,33.8,28.4,81,30.12,1.0,NW,6.9,-,0.00,Snow,Light Snow,320,2013-03-26 20:43:00
4:50 PM,32.0,30.2,93,30.12,0.5,Variable,6.9,-,0.01,Fog-Snow,Snow,0,2013-03-26 20:50:00
4:53 PM,33.1,30.0,89,30.15,0.8,Variable,5.8,-,0.01,Snow,Light Snow,0,2013-03-26 20:53:00
4:56 PM,33.8,30.2,87,30.12,1.8,West,9.2,-,0.00,Snow,Light Snow,270,2013-03-26 20:56:00
5:00 PM,33.8,30.2,87,30.12,6.0,Variable,4.6,-,0.01,Snow,Light Snow,0,2013-03-26 21:00:00
5:31 PM,35.6,30.2,81,30.13,10.0,WNW,6.9,-,0.01,,Overcast,300,2013-03-26 21:31:00
5:53 PM,35.1,28.9,78,30.16,9.0,Variable,4.6,-,0.01,Snow,Light Snow,0,2013-03-26 21:53:00
6:05 PM,33.8,30.2,87,30.13,2.5,West,6.9,-,0.00,Snow,Light Snow,270,2013-03-26 22:05:00
6:09 PM,35.6,30.2,81,30.13,3.0,Variable,5.8,-,0.00,Snow,Light Snow,0,2013-03-26 22:09:00
6:23 PM,35.6,30.2,81,30.14,10.0,WNW,8.1,-,0.00,,Overcast,290,2013-03-26 22:23:00
6:44 PM,33.8,28.4,81,30.15,1.0,WNW,11.5,18.4,0.00,Snow,Light Snow,300,2013-03-26 22:44:00
6:53 PM,33.1,30.0,89,30.18,1.2,WNW,4.6,-,0.00,Snow,Light Snow,300,2013-03-26 22:53:00
6:55 PM,33.8,30.2,87,30.15,2.5,West,5.8,-,0.00,Snow,Light Snow,280,2013-03-26 22:55:00
7:02 PM,33.8,28.4,81,30.15,8.0,WNW,4.6,-,0.00,,Overcast,290,2013-03-26 23:02:00
7:53 PM,33.1,28.9,85,30.20,10.0,Variable,5.8,-,0.00,,Overcast,0,2013-03-26 23:53:00
8:53 PM,32.0,28.0,85,30.22,8.0,West,9.2,-,0.00,Snow,Light Snow,270,2013-03-27 00:53:00
9:06 PM,32.0,28.4,87,30.19,5.0,West,8.1,-,0.00,Snow,Light Snow,280,2013-03-27 01:06:00
9:53 PM,32.0,28.0,85,30.25,10.0,Variable,4.6,-,0.00,,Overcast,0,2013-03-27 01:53:00
10:53 PM,32.0,28.0,85,30.26,10.0,WSW,4.6,-,N/A,,Overcast,250,2013-03-27 02:53:00
11:53 PM,32.0,27.0,82,30.26,10.0,WSW,3.5,-,N/A,,Overcast,250,2013-03-27 03:53:00